This demonstration page uses our WeatherBlox Daily Observations layout. Learn more.

Left ArrowRight Arrow

39.01783, -85.05884

Hourly Observations for November 26, 2018

Temp ( °F °C ) Dew Point ( °F °C ) Humidity (%) Winds ( mph kmh ) Pressure ( in mb ) Visibility ( mi km ) Precip ( " mm )
12:44 am 00:44 Cloudy with Light Rain 49 9.4 47 8.3 93 93 S 14 22 29.47 998 6 10 0.10 2.54
12:52 am 00:52 Cloudy with Rain 49 9.4 47 8.3 93 93 SSW 9 15 29.44 997 6 10 0.11 2.79
1:39 am 01:39 Cloudy 49 9.4 47 8.3 93 93 S 14 22 29.44 997 10 16 0.01 0.25
1:52 am 01:52 Cloudy with Light Rain 49 9.4 47 8.3 93 93 S 17 28 29.41 996 10 16 0.01 0.25
2:52 am 02:52 Cloudy 50 10 43 6.1 77 77 SSW 16 26 29.40 996 10 16 0.00 0.03
3:52 am 03:52 Cloudy 47 8.3 39 3.9 74 74 SW 16 26 29.42 996 10 16 0.00 0.00
4:03 am 04:03 Cloudy 47 8.3 39 3.9 74 74 SW 23 37 29.47 998 10 16 0.00 0.00
4:52 am 04:52 Cloudy 46 7.8 39 3.9 77 77 SW 16 26 29.44 997 10 16 0.00 0.00
5:52 am 05:52 Cloudy with Light Rain 40 4.4 37 2.8 89 89 WSW 21 33 29.48 998 6 10 0.01 0.25
6:52 am 06:52 Cloudy 37 2.8 32 0 82 82 WSW 20 31 29.53 1000 8 13 0.00 0.03
7:38 am 07:38 Cloudy with Light Snow 36 2.2 31 -0.6 82 82 SW 15 24 29.56 1001 3 5 0.00 0.03
7:52 am 07:52 Windy with Snow Likely 35 1.7 32 0 89 89 SW 20 31 29.54 1000 3 5 0.00 0.03
8:28 am 08:28 Cloudy with Mist and Fog 35 1.7 32 0 89 89 SW 17 28 29.59 1002 3 5 0.00 0.03
8:52 am 08:52 Cloudy with Mist and Fog 35 1.7 32 0 89 89 SW 15 24 29.56 1001 3 5 0.00 0.03
8:54 am 08:54 Cloudy 35 1.7 32 0 89 89 SW 17 28 29.59 1002 8 13 0.00 0.00
9:52 am 09:52 Cloudy with Light Snow 34 1.1 33 0.6 97 97 SW 16 26 29.59 1002 2 2 0.00 0.03
10:07 am 10:07 Cloudy with Light Snow 35 1.7 34 1.1 96 96 SW 16 26 29.62 1003 6 10 0.00 0.03
10:22 am 10:22 Cloudy 35 1.7 34 1.1 96 96 SW 15 24 29.65 1004 7 11 0.00 0.03
10:52 am 10:52 Cloudy with Light Rain 36 2.2 35 1.7 97 97 WSW 17 28 29.62 1003 7 11 0.00 0.03
11:52 am 11:52 Cloudy with Light Rain 36 2.2 35 1.7 97 97 W 17 28 29.65 1004 5 8 0.01 0.25
12:52 pm 12:52 Cloudy with Light Snow 36 2.2 34 1.1 93 93 W 18 30 29.69 1006 6 10 0.01 0.25
1:52 pm 13:52 Windy with Snow Likely 35 1.7 33 0.6 93 93 WNW 22 35 29.73 1007 8 13 0.01 0.25
2:52 pm 14:52 Cloudy with Light Snow 36 2.2 32 0 86 86 WNW 16 26 29.77 1008 9 14 0.00 0.03
3:26 pm 15:26 Cloudy with Light Snow 35 1.7 32 0 89 89 WNW 18 30 29.80 1009 2 3 0.00 0.03
3:30 pm 15:30 Cloudy with Light Snow 35 1.7 33 0.6 93 93 WNW 18 30 29.83 1010 1 2 0.00 0.03
3:35 pm 15:35 Windy with Snow Likely 34 1.1 32 0 92 92 W 20 31 29.83 1010 1 1 0.00 0.03
3:42 pm 15:42 Cloudy with Light Snow 33 0.6 32 0 96 96 W 18 30 29.83 1010 1 1 0.01 0.25
3:47 pm 15:47 Windy with Snow Likely 34 1 32 0 93 93 W 22 35 29.83 1010 2 3 0.02 0.51
3:52 pm 15:52 Windy with Snow Likely 33 0.6 32 0 96 96 W 25 41 29.81 1009 4 6 0.02 0.51
4:17 pm 16:17 Cloudy with Light Snow 33 0.6 32 0 96 96 W 15 24 29.85 1011 2 3 0.00 0.03
4:30 pm 16:30 Cloudy with Light Snow 33 0.6 31 -0.6 92 92 W 17 28 29.85 1011 1 2 0.00 0.03
4:49 pm 16:49 Windy with Snow Likely 32 0 30 -1 93 93 W 21 33 29.85 1011 1 1 0.00 0.03
4:52 pm 16:52 Windy with Snow Likely 32 0 31 -0.6 96 96 W 23 37 29.84 1011 1 1 0.00 0.03
5:02 pm 17:02 Windy with Snow Likely 32 0 31 -0.6 96 96 W 22 35 29.85 1011 1 1 0.01 0.25
5:19 pm 17:19 Windy with Snow Likely 31 -0.6 30 -1.1 96 96 W 20 31 29.85 1011 1 2 0.01 0.25
5:52 pm 17:52 Cloudy with Light Snow 31 -0.6 30 -1.1 96 96 W 17 28 29.88 1012 2 3 0.01 0.25
6:52 pm 18:52 Windy with Snow Likely 30 -1.1 28 -2.2 92 92 W 21 33 29.90 1013 2 2 0.00 0.03
7:04 pm 19:04 Cloudy with Light Snow 30 -1.1 29 -1.7 96 96 W 15 24 29.94 1014 2 3 0.01 0.25
7:39 pm 19:39 Cloudy with Light Snow 30 -1.1 28 -2.2 92 92 W 14 22 29.97 1015 6 10 0.01 0.25
7:52 pm 19:52 Cloudy with Light Snow 30 -1.1 28 -2.2 92 92 W 16 26 29.91 1013 7 11 0.01 0.25
8:29 pm 20:29 Windy with Snow Likely 30 -1.1 27 -2.8 88 88 W 21 33 29.97 1015 9 14 0.00 0.03
8:52 pm 20:52 Cloudy with Light Snow 30 -1.1 28 -2.2 92 92 W 17 28 29.93 1013 9 14 0.00 0.03
9:10 pm 21:10 Cloudy with Light Snow 30 -1.1 28 -2.2 92 92 WNW 15 24 29.97 1015 9 14 0.00 0.03
9:52 pm 21:52 Cloudy with Light Snow 30 -1.1 28 -2.2 92 92 W 18 30 29.94 1014 9 14 0.00 0.03
10:22 pm 22:22 Cloudy with Light Freezing Drizzle 30 -1.1 27 -2.8 88 88 W 15 24 30.00 1016 8 13 0.00 0.03
10:31 pm 22:31 Cloudy 30 -1.1 27 -2.8 88 88 W 18 30 30.00 1016 9 14 0.00 0.03
10:52 pm 22:52 Cloudy with Light Snow 30 -1.1 26 -3.3 85 85 W 18 30 29.95 1014 4 6 0.00 0.03
11:52 pm 23:52 Cloudy 29 -1.7 25 -3.9 85 85 WNW 17 28 29.95 1014 10 16 0.00 0.03

Powered by AerisWeather